Back to catalog

STARLINK-36993

AliveCommunicationsVLEO
NORAD 67994·PAYLOAD·🇺🇸 United States

Launched Feb 27, 2026 from Vandenberg Space Force Base

Loading…

Next Passes (next 24 hours)

TLE

FreshSource: CelesTrak SupGP

Epoch: Sep 14, 2026, 21:11 UTC

1 67994C 26039J   26257.88312500  .00056955  00000+0  20630-2 0  2573
2 67994  43.0039  60.4613 0001781 276.5973 245.7141 15.27547823    11

Track STARLINK-36993 in real time with AllMySat

Download on the App Store